owner,sensor,date,latitude,longitude,vertical_datum,wind_speed,wind_to_direction,wind_speed_of_gust,qcFlag 
COMPS,ioos:station:USF.COMPS:SHP:1,2016-05-01T00:00:00Z,30.0600,-84.2910,10.0,2.42,183.4,3.52,'1111122,1111122,1111122' 
COMPS,ioos:station:USF.COMPS:SHP:1,2016-05-01T00:06:00Z,30.0600,-84.2910,10.0,2.08,184.03,3.72,'1111122,1111122,1111122' 
COMPS,ioos:station:USF.COMPS:SHP:1,2016-05-01T00:12:00Z,30.0600,-84.2910,10.0,1.91,185.92,3.03,'1111122,1111122,1111122' 
COMPS,ioos:station:USF.COMPS:SHP:1,2016-05-01T00:18:00Z,30.0600,-84.2910,10.0,1.72,181.82,2.94,'1111122,1111122,1111122' 
COMPS,ioos:station:USF.COMPS:SHP:1,2016-05-01T00:24:00Z,30.0600,-84.2910,10.0,1.46,181.5,3.03,'1111122,1111122,1111122' 
COMPS,ioos:station:USF.COMPS:SHP:1,2016-05-01T00:30:00Z,30.0600,-84.2910,10.0,1.85,181.71,3.82,'1111122,1111122,1111122' 
COMPS,ioos:station:USF.COMPS:SHP:1,2016-05-01T00:36:00Z,30.0600,-84.2910,10.0,1.97,185.86,3.23,'1111122,1111122,1111122' 
COMPS,ioos:station:USF.COMPS:SHP:1,2016-05-01T00:42:00Z,30.0600,-84.2910,10.0,2.43,194.91,3.72,'1111122,1111122,1111122' 
COMPS,ioos:station:USF.COMPS:SHP:1,2016-05-01T00:48:00Z,30.0600,-84.2910,10.0,2.18,196.66,3.23,'1111122,1111122,1111122' 
COMPS,ioos:station:USF.COMPS:SHP:1,2016-05-01T00:54:00Z,30.0600,-84.2910,10.0,1.9,189.78,3.03,'1111122,1111122,1111122' 
COMPS,ioos:station:USF.COMPS:SHP:1,2016-05-01T01:00:00Z,30.0600,-84.2910,10.0,1.79,186.82,3.52,'1111122,1111122,1111122' 
COMPS,ioos:station:USF.COMPS:SHP:1,2016-05-01T01:06:00Z,30.0600,-84.2910,10.0,0.73,177.5,2.64,'1111122,1111122,1111122' 
COMPS,ioos:station:USF.COMPS:SHP:1,2016-05-01T01:12:00Z,30.0600,-84.2910,10.0,1.96,170.54,2.84,'1111122,1111122,1111122' 
COMPS,ioos:station:USF.COMPS:SHP:1,2016-05-01T01:18:00Z,30.0600,-84.2910,10.0,1.67,178.57,2.64,'1111122,1111122,1111122' 
COMPS,ioos:station:USF.COMPS:SHP:1,2016-05-01T01:24:00Z,30.0600,-84.2910,10.0,1.45,186.64,2.35,'1111122,1111122,1111122' 
COMPS,ioos:station:USF.COMPS:SHP:1,2016-05-01T01:30:00Z,30.0600,-84.2910,10.0,1.33,190.07,2.25,'1111122,1111122,1111122' 
COMPS,ioos:station:USF.COMPS:SHP:1,2016-05-01T01:36:00Z,30.0600,-84.2910,10.0,1.33,192.27,2.35,'1111122,1111122,1111122' 
COMPS,ioos:station:USF.COMPS:SHP:1,2016-05-01T01:42:00Z,30.0600,-84.2910,10.0,1.65,199.68,2.74,'1111122,1111122,1111122' 
COMPS,ioos:station:USF.COMPS:SHP:1,2016-05-01T01:48:00Z,30.0600,-84.2910,10.0,1.63,200.98,2.35,'1111122,1111122,1111122' 
COMPS,ioos:station:USF.COMPS:SHP:1,2016-05-01T01:54:00Z,30.0600,-84.2910,10.0,0.44,195.39,1.96,'1111122,1111122,1111122' 
COMPS,ioos:station:USF.COMPS:SHP:1,2016-05-01T02:00:00Z,30.0600,-84.2910,10.0,0.09,196.4,0.09,'1111122,1111122,1111122' 
COMPS,ioos:station:USF.COMPS:SHP:1,2016-05-01T02:06:00Z,30.0600,-84.2910,10.0,1.06,202.71,2.15,'1111122,1111122,1111122' 
COMPS,ioos:station:USF.COMPS:SHP:1,2016-05-01T02:12:00Z,30.0600,-84.2910,10.0,2.08,219.56,2.54,'1111122,1111122,1111122' 
COMPS,ioos:station:USF.COMPS:SHP:1,2016-05-01T02:18:00Z,30.0600,-84.2910,10.0,2.12,237.6,3.43,'1111122,1111122,1111122' 
COMPS,ioos:station:USF.COMPS:SHP:1,2016-05-01T02:24:00Z,30.0600,-84.2910,10.0,2.31,232.37,3.13,'1111122,1111122,1111122' 
COMPS,ioos:station:USF.COMPS:SHP:1,2016-05-01T02:30:00Z,30.0600,-84.2910,10.0,1.85,233.89,2.74,'1111122,1111122,1111122' 
COMPS,ioos:station:USF.COMPS:SHP:1,2016-05-01T02:36:00Z,30.0600,-84.2910,10.0,0.31,252.17,1.86,'1111122,1111122,1111122' 
COMPS,ioos:station:USF.COMPS:SHP:1,2016-05-01T02:42:00Z,30.0600,-84.2910,10.0,0.09,256.36,0.09,'1111122,1111122,1111122' 
COMPS,ioos:station:USF.COMPS:SHP:1,2016-05-01T02:48:00Z,30.0600,-84.2910,10.0,0.09,273.78,0.09,'1111122,1111122,1111122' 
COMPS,ioos:station:USF.COMPS:SHP:1,2016-05-01T02:54:00Z,30.0600,-84.2910,10.0,0.09,279.6,0.09,'1111122,1111122,1111122' 
COMPS,ioos:station:USF.COMPS:SHP:1,2016-05-01T03:00:00Z,30.0600,-84.2910,10.0,0.09,268.86,0.09,'1111122,1111122,1111122' 
COMPS,ioos:station:USF.COMPS:SHP:1,2016-05-01T03:06:00Z,30.0600,-84.2910,10.0,0.09,307.3,0.09,'1111122,1111122,1111122' 
COMPS,ioos:station:USF.COMPS:SHP:1,2016-05-01T03:12:00Z,30.0600,-84.2910,10.0,0.09,352.51,0.09,'1111122,1111122,1111122' 
COMPS,ioos:station:USF.COMPS:SHP:1,2016-05-01T03:18:00Z,30.0600,-84.2910,10.0,0.09,21.06,0.09,'1111122,1111122,1111122' 
COMPS,ioos:station:USF.COMPS:SHP:1,2016-05-01T03:24:00Z,30.0600,-84.2910,10.0,0.1,9.64,0.19,'1111122,1111122,1111122' 
COMPS,ioos:station:USF.COMPS:SHP:1,2016-05-01T03:30:00Z,30.0600,-84.2910,10.0,0.09,11.61,0.09,'1111122,1111122,1111122' 
COMPS,ioos:station:USF.COMPS:SHP:1,2016-05-01T03:36:00Z,30.0600,-84.2910,10.0,0.09,13.34,0.09,'1111122,1111122,1111122' 
COMPS,ioos:station:USF.COMPS:SHP:1,2016-05-01T03:42:00Z,30.0600,-84.2910,10.0,0.09,12.12,0.09,'1111122,1111122,1111122' 
COMPS,ioos:station:USF.COMPS:SHP:1,2016-05-01T03:48:00Z,30.0600,-84.2910,10.0,0.1,19.55,0.19,'1111122,1111122,1111122' 
COMPS,ioos:station:USF.COMPS:SHP:1,2016-05-01T03:54:00Z,30.0600,-84.2910,10.0,0.09,27.56,0.09,'1111122,1111122,1111122' 
COMPS,ioos:station:USF.COMPS:SHP:1,2016-05-01T04:00:00Z,30.0600,-84.2910,10.0,0.09,35.52,0.09,'1111122,1111122,1111122' 
COMPS,ioos:station:USF.COMPS:SHP:1,2016-05-01T04:06:00Z,30.0600,-84.2910,10.0,0.09,18.33,0.09,'1111122,1111122,1111122' 
COMPS,ioos:station:USF.COMPS:SHP:1,2016-05-01T04:12:00Z,30.0600,-84.2910,10.0,0.1,356.91,0.19,'1111122,1111122,1111122' 
COMPS,ioos:station:USF.COMPS:SHP:1,2016-05-01T04:18:00Z,30.0600,-84.2910,10.0,0.09,356.49,0.09,'1111122,1111122,1111122' 
COMPS,ioos:station:USF.COMPS:SHP:1,2016-05-01T04:24:00Z,30.0600,-84.2910,10.0,0.09,351.21,0.09,'1111122,1111122,1111122' 
COMPS,ioos:station:USF.COMPS:SHP:1,2016-05-01T04:30:00Z,30.0600,-84.2910,10.0,0.09,353.78,0.09,'1111122,1111122,1111122' 
COMPS,ioos:station:USF.COMPS:SHP:1,2016-05-01T04:36:00Z,30.0600,-84.2910,10.0,0.09,0.68,0.09,'1111122,1111122,1111122' 
COMPS,ioos:station:USF.COMPS:SHP:1,2016-05-01T04:42:00Z,30.0600,-84.2910,10.0,0.09,349.85,0.09,'1111122,1111122,1111122' 
COMPS,ioos:station:USF.COMPS:SHP:1,2016-05-01T04:48:00Z,30.0600,-84.2910,10.0,0.09,355.98,0.09,'1111122,1111122,1111122' 
COMPS,ioos:station:USF.COMPS:SHP:1,2016-05-01T04:54:00Z,30.0600,-84.2910,10.0,0.09,7.59,0.09,'1111122,1111122,1111122' 
COMPS,ioos:station:USF.COMPS:SHP:1,2016-05-01T05:00:00Z,30.0600,-84.2910,10.0,0.09,11.1,0.09,'1111122,1111122,1111122' 
COMPS,ioos:station:USF.COMPS:SHP:1,2016-05-01T05:06:00Z,30.0600,-84.2910,10.0,0.09,14.68,0.09,'1111122,1111122,1111122' 
COMPS,ioos:station:USF.COMPS:SHP:1,2016-05-01T05:12:00Z,30.0600,-84.2910,10.0,0.09,6.18,0.09,'1111122,1111122,1111122' 
COMPS,ioos:station:USF.COMPS:SHP:1,2016-05-01T05:18:00Z,30.0600,-84.2910,10.0,0.09,357.89,0.09,'1111122,1111122,1111122' 
COMPS,ioos:station:USF.COMPS:SHP:1,2016-05-01T05:24:00Z,30.0600,-84.2910,10.0,0.09,1.04,0.09,'1111122,1111122,1111122' 
COMPS,ioos:station:USF.COMPS:SHP:1,2016-05-01T05:30:00Z,30.0600,-84.2910,10.0,0.09,2.03,0.09,'1111122,1111122,1111122' 
COMPS,ioos:station:USF.COMPS:SHP:1,2016-05-01T05:36:00Z,30.0600,-84.2910,10.0,0.09,2.02,0.09,'1111122,1111122,1111122' 
COMPS,ioos:station:USF.COMPS:SHP:1,2016-05-01T05:42:00Z,30.0600,-84.2910,10.0,0.09,3.08,0.09,'1111122,1111122,1111122' 
COMPS,ioos:station:USF.COMPS:SHP:1,2016-05-01T05:48:00Z,30.0600,-84.2910,10.0,0.09,19.8,0.09,'1111122,1111122,1111122' 
COMPS,ioos:station:USF.COMPS:SHP:1,2016-05-01T05:54:00Z,30.0600,-84.2910,10.0,0.09,18.68,0.09,'1111122,1111122,1111122' 
COMPS,ioos:station:USF.COMPS:SHP:1,2016-05-01T06:00:00Z,30.0600,-84.2910,10.0,0.09,33.49,0.09,'1111122,1111122,1111122' 
COMPS,ioos:station:USF.COMPS:SHP:1,2016-05-01T06:06:00Z,30.0600,-84.2910,10.0,0.09,28.91,0.09,'1111122,1111122,1111122' 
COMPS,ioos:station:USF.COMPS:SHP:1,2016-05-01T06:12:00Z,30.0600,-84.2910,10.0,0.09,43.27,0.09,'1111122,1111122,1111122' 
COMPS,ioos:station:USF.COMPS:SHP:1,2016-05-01T06:18:00Z,30.0600,-84.2910,10.0,0.09,108.67,0.09,'1111122,1111122,1111122' 
COMPS,ioos:station:USF.COMPS:SHP:1,2016-05-01T06:24:00Z,30.0600,-84.2910,10.0,0.09,143.32,0.09,'1111122,1111122,1111122' 
COMPS,ioos:station:USF.COMPS:SHP:1,2016-05-01T06:30:00Z,30.0600,-84.2910,10.0,0.09,137.6,0.09,'1111122,1111122,1111122' 
COMPS,ioos:station:USF.COMPS:SHP:1,2016-05-01T06:36:00Z,30.0600,-84.2910,10.0,0.09,137.6,0.09,'1111122,1111122,1111122' 
COMPS,ioos:station:USF.COMPS:SHP:1,2016-05-01T06:42:00Z,30.0600,-84.2910,10.0,0.1,141.6,0.19,'1111122,1111122,1111122' 
COMPS,ioos:station:USF.COMPS:SHP:1,2016-05-01T06:48:00Z,30.0600,-84.2910,10.0,0.09,138.75,0.09,'1111122,1111122,1111122' 
COMPS,ioos:station:USF.COMPS:SHP:1,2016-05-01T06:54:00Z,30.0600,-84.2910,10.0,0.09,131.67,0.09,'1111122,1111122,1111122' 
COMPS,ioos:station:USF.COMPS:SHP:1,2016-05-01T07:00:00Z,30.0600,-84.2910,10.0,0.09,126.07,0.09,'1111122,1111122,1111122' 
COMPS,ioos:station:USF.COMPS:SHP:1,2016-05-01T07:06:00Z,30.0600,-84.2910,10.0,0.18,119.46,1.37,'1111122,1111122,1111122' 
COMPS,ioos:station:USF.COMPS:SHP:1,2016-05-01T07:12:00Z,30.0600,-84.2910,10.0,0.09,120.05,0.09,'1111122,1111122,1111122' 
COMPS,ioos:station:USF.COMPS:SHP:1,2016-05-01T07:18:00Z,30.0600,-84.2910,10.0,0.81,125.9,3.23,'1111122,1111122,1111122' 
COMPS,ioos:station:USF.COMPS:SHP:1,2016-05-01T07:24:00Z,30.0600,-84.2910,10.0,1.62,125.48,3.13,'1111122,1111122,1111122' 
COMPS,ioos:station:USF.COMPS:SHP:1,2016-05-01T07:30:00Z,30.0600,-84.2910,10.0,2.66,127.36,4.11,'1111122,1111122,1111122' 
COMPS,ioos:station:USF.COMPS:SHP:1,2016-05-01T07:36:00Z,30.0600,-84.2910,10.0,2.88,125.08,4.99,'1111122,1111122,1111122' 
COMPS,ioos:station:USF.COMPS:SHP:1,2016-05-01T07:42:00Z,30.0600,-84.2910,10.0,3.37,127.52,5.68,'1111122,1111122,1111122' 
COMPS,ioos:station:USF.COMPS:SHP:1,2016-05-01T07:48:00Z,30.0600,-84.2910,10.0,4.17,130.02,5.97,'1111122,1111122,1111122' 
COMPS,ioos:station:USF.COMPS:SHP:1,2016-05-01T07:54:00Z,30.0600,-84.2910,10.0,4.68,128.48,6.07,'1111122,1111122,1111122' 
COMPS,ioos:station:USF.COMPS:SHP:1,2016-05-01T08:00:00Z,30.0600,-84.2910,10.0,4.41,131.35,5.58,'1111122,1111122,1111122' 
COMPS,ioos:station:USF.COMPS:SHP:1,2016-05-01T08:06:00Z,30.0600,-84.2910,10.0,5.12,136.21,6.56,'1111122,1111122,1111122' 
COMPS,ioos:station:USF.COMPS:SHP:1,2016-05-01T08:12:00Z,30.0600,-84.2910,10.0,5.6,134.83,6.66,'1111122,1111122,1111122' 
COMPS,ioos:station:USF.COMPS:SHP:1,2016-05-01T08:18:00Z,30.0600,-84.2910,10.0,5.8,136.63,7.15,'1111122,1111122,1111122' 
COMPS,ioos:station:USF.COMPS:SHP:1,2016-05-01T08:24:00Z,30.0600,-84.2910,10.0,5.9,138.95,6.76,'1111122,1111122,1111122' 
COMPS,ioos:station:USF.COMPS:SHP:1,2016-05-01T08:30:00Z,30.0600,-84.2910,10.0,5.52,136.51,6.56,'1111122,1111122,1111122' 
COMPS,ioos:station:USF.COMPS:SHP:1,2016-05-01T08:36:00Z,30.0600,-84.2910,10.0,5.69,139.67,6.56,'1111122,1111122,1111122' 
COMPS,ioos:station:USF.COMPS:SHP:1,2016-05-01T08:42:00Z,30.0600,-84.2910,10.0,5.49,143.6,6.66,'1111122,1111122,1111122' 
COMPS,ioos:station:USF.COMPS:SHP:1,2016-05-01T08:48:00Z,30.0600,-84.2910,10.0,5.29,143.04,6.17,'1111122,1111122,1111122' 
COMPS,ioos:station:USF.COMPS:SHP:1,2016-05-01T08:54:00Z,30.0600,-84.2910,10.0,5.02,148.49,6.07,'1111122,1111122,1111122' 
COMPS,ioos:station:USF.COMPS:SHP:1,2016-05-01T09:00:00Z,30.0600,-84.2910,10.0,5.18,148.2,5.97,'1111122,1111122,1111122' 
COMPS,ioos:station:USF.COMPS:SHP:1,2016-05-01T09:06:00Z,30.0600,-84.2910,10.0,5.24,147.87,5.78,'1111122,1111122,1111122' 
COMPS,ioos:station:USF.COMPS:SHP:1,2016-05-01T09:12:00Z,30.0600,-84.2910,10.0,4.67,155.0,5.87,'1111122,1111122,1111122' 
COMPS,ioos:station:USF.COMPS:SHP:1,2016-05-01T09:18:00Z,30.0600,-84.2910,10.0,4.87,158.6,5.87,'1111122,1111122,1111122' 
COMPS,ioos:station:USF.COMPS:SHP:1,2016-05-01T09:24:00Z,30.0600,-84.2910,10.0,5.13,159.18,6.37,'1111122,1111122,1111122' 
COMPS,ioos:station:USF.COMPS:SHP:1,2016-05-01T09:30:00Z,30.0600,-84.2910,10.0,5.6,158.23,6.85,'1111122,1111122,1111122' 
COMPS,ioos:station:USF.COMPS:SHP:1,2016-05-01T09:36:00Z,30.0600,-84.2910,10.0,4.82,161.79,5.78,'1111122,1111122,1111122' 
COMPS,ioos:station:USF.COMPS:SHP:1,2016-05-01T09:42:00Z,30.0600,-84.2910,10.0,4.29,169.17,5.39,'1111122,1111122,1111122' 
COMPS,ioos:station:USF.COMPS:SHP:1,2016-05-01T09:48:00Z,30.0600,-84.2910,10.0,3.9,162.74,4.7,'1111122,1111122,1111122' 
COMPS,ioos:station:USF.COMPS:SHP:1,2016-05-01T09:54:00Z,30.0600,-84.2910,10.0,3.59,162.91,4.41,'1111122,1111122,1111122' 
COMPS,ioos:station:USF.COMPS:SHP:1,2016-05-01T10:00:00Z,30.0600,-84.2910,10.0,3.31,159.45,4.6,'1111122,1111122,1111122' 
COMPS,ioos:station:USF.COMPS:SHP:1,2016-05-01T10:06:00Z,30.0600,-84.2910,10.0,3.56,161.47,4.31,'1111122,1111122,1111122' 
COMPS,ioos:station:USF.COMPS:SHP:1,2016-05-01T10:12:00Z,30.0600,-84.2910,10.0,3.85,169.5,4.8,'1111122,1111122,1111122' 
COMPS,ioos:station:USF.COMPS:SHP:1,2016-05-01T10:18:00Z,30.0600,-84.2910,10.0,4.52,168.13,5.29,'1111122,1111122,1111122' 
COMPS,ioos:station:USF.COMPS:SHP:1,2016-05-01T10:24:00Z,30.0600,-84.2910,10.0,4.58,164.16,5.58,'1111122,1111122,1111122' 
COMPS,ioos:station:USF.COMPS:SHP:1,2016-05-01T10:30:00Z,30.0600,-84.2910,10.0,4.42,165.42,5.58,'1111122,1111122,1111122' 
COMPS,ioos:station:USF.COMPS:SHP:1,2016-05-01T10:36:00Z,30.0600,-84.2910,10.0,4.39,164.04,5.29,'1111122,1111122,1111122' 
COMPS,ioos:station:USF.COMPS:SHP:1,2016-05-01T10:42:00Z,30.0600,-84.2910,10.0,4.52,164.91,5.58,'1111122,1111122,1111122' 
COMPS,ioos:station:USF.COMPS:SHP:1,2016-05-01T10:48:00Z,30.0600,-84.2910,10.0,4.52,161.47,5.48,'1111122,1111122,1111122' 
COMPS,ioos:station:USF.COMPS:SHP:1,2016-05-01T10:54:00Z,30.0600,-84.2910,10.0,4.64,162.74,5.78,'1111122,1111122,1111122' 
COMPS,ioos:station:USF.COMPS:SHP:1,2016-05-01T11:00:00Z,30.0600,-84.2910,10.0,4.67,161.06,5.87,'1111122,1111122,1111122' 
COMPS,ioos:station:USF.COMPS:SHP:1,2016-05-01T11:06:00Z,30.0600,-84.2910,10.0,4.27,164.1,5.78,'1111122,1111122,1111122' 
COMPS,ioos:station:USF.COMPS:SHP:1,2016-05-01T11:12:00Z,30.0600,-84.2910,10.0,4.3,159.85,5.09,'1111122,1111122,1111122' 
COMPS,ioos:station:USF.COMPS:SHP:1,2016-05-01T11:18:00Z,30.0600,-84.2910,10.0,3.35,162.46,4.99,'1111122,1111122,1111122' 
COMPS,ioos:station:USF.COMPS:SHP:1,2016-05-01T11:24:00Z,30.0600,-84.2910,10.0,3.08,164.98,4.8,'1111122,1111122,1111122' 
COMPS,ioos:station:USF.COMPS:SHP:1,2016-05-01T11:30:00Z,30.0600,-84.2910,10.0,3.8,164.75,4.7,'1111122,1111122,1111122' 
COMPS,ioos:station:USF.COMPS:SHP:1,2016-05-01T11:36:00Z,30.0600,-84.2910,10.0,3.48,163.81,4.41,'1111122,1111122,1111122' 
COMPS,ioos:station:USF.COMPS:SHP:1,2016-05-01T11:42:00Z,30.0600,-84.2910,10.0,3.8,158.55,4.7,'1111122,1111122,1111122' 
COMPS,ioos:station:USF.COMPS:SHP:1,2016-05-01T11:48:00Z,30.0600,-84.2910,10.0,3.25,153.78,4.11,'1111122,1111122,1111122' 
COMPS,ioos:station:USF.COMPS:SHP:1,2016-05-01T11:54:00Z,30.0600,-84.2910,10.0,3.45,151.08,4.5,'1111122,1111122,1111122' 
COMPS,ioos:station:USF.COMPS:SHP:1,2016-05-01T12:00:00Z,30.0600,-84.2910,10.0,2.98,152.68,3.72,'1111122,1111122,1111122' 
COMPS,ioos:station:USF.COMPS:SHP:1,2016-05-01T12:06:00Z,30.0600,-84.2910,10.0,2.8,145.72,4.41,'1111122,1111122,1111122' 
COMPS,ioos:station:USF.COMPS:SHP:1,2016-05-01T12:12:00Z,30.0600,-84.2910,10.0,3.3,149.24,4.5,'1111122,1111122,1111122' 
COMPS,ioos:station:USF.COMPS:SHP:1,2016-05-01T12:18:00Z,30.0600,-84.2910,10.0,2.32,141.31,3.82,'1111122,1111122,1111122' 
COMPS,ioos:station:USF.COMPS:SHP:1,2016-05-01T12:24:00Z,30.0600,-84.2910,10.0,3.05,150.55,3.82,'1111122,1111122,1111122' 
COMPS,ioos:station:USF.COMPS:SHP:1,2016-05-01T12:30:00Z,30.0600,-84.2910,10.0,2.94,143.26,3.92,'1111122,1111122,1111122' 
COMPS,ioos:station:USF.COMPS:SHP:1,2016-05-01T12:36:00Z,30.0600,-84.2910,10.0,2.57,143.47,4.21,'1111122,1111122,1111122' 
COMPS,ioos:station:USF.COMPS:SHP:1,2016-05-01T12:42:00Z,30.0600,-84.2910,10.0,3.02,144.87,3.72,'1111122,1111122,1111122' 
COMPS,ioos:station:USF.COMPS:SHP:1,2016-05-01T12:48:00Z,30.0600,-84.2910,10.0,3.52,142.66,4.41,'1111122,1111122,1111122' 
COMPS,ioos:station:USF.COMPS:SHP:1,2016-05-01T12:54:00Z,30.0600,-84.2910,10.0,2.87,138.51,4.21,'1111122,1111122,1111122' 
COMPS,ioos:station:USF.COMPS:SHP:1,2016-05-01T13:00:00Z,30.0600,-84.2910,10.0,3.48,139.02,4.7,'1111122,1111122,1111122' 
COMPS,ioos:station:USF.COMPS:SHP:1,2016-05-01T13:06:00Z,30.0600,-84.2910,10.0,2.65,141.26,4.5,'1111122,1111122,1111122' 
COMPS,ioos:station:USF.COMPS:SHP:1,2016-05-01T13:12:00Z,30.0600,-84.2910,10.0,2.44,144.35,4.11,'1111122,1111122,1111122' 
COMPS,ioos:station:USF.COMPS:SHP:1,2016-05-01T13:18:00Z,30.0600,-84.2910,10.0,3.86,143.32,5.39,'1111122,1111122,1111122' 
COMPS,ioos:station:USF.COMPS:SHP:1,2016-05-01T13:24:00Z,30.0600,-84.2910,10.0,3.62,139.36,5.29,'1111122,1111122,1111122' 
COMPS,ioos:station:USF.COMPS:SHP:1,2016-05-01T13:30:00Z,30.0600,-84.2910,10.0,4.3,141.68,5.68,'1111122,1111122,1111122' 
COMPS,ioos:station:USF.COMPS:SHP:1,2016-05-01T13:36:00Z,30.0600,-84.2910,10.0,4.68,148.6,5.87,'1111122,1111122,1111122' 
COMPS,ioos:station:USF.COMPS:SHP:1,2016-05-01T13:42:00Z,30.0600,-84.2910,10.0,4.92,149.85,6.27,'1111122,1111122,1111122' 
COMPS,ioos:station:USF.COMPS:SHP:1,2016-05-01T13:48:00Z,30.0600,-84.2910,10.0,5.32,153.96,6.27,'1111122,1111122,1111122' 
COMPS,ioos:station:USF.COMPS:SHP:1,2016-05-01T13:54:00Z,30.0600,-84.2910,10.0,4.94,162.07,6.27,'1111122,1111122,1111122' 
COMPS,ioos:station:USF.COMPS:SHP:1,2016-05-01T14:00:00Z,30.0600,-84.2910,10.0,4.92,156.25,5.97,'1111122,1111122,1111122' 
COMPS,ioos:station:USF.COMPS:SHP:1,2016-05-01T14:06:00Z,30.0600,-84.2910,10.0,4.75,160.13,6.46,'1111122,1111122,1111122' 
COMPS,ioos:station:USF.COMPS:SHP:1,2016-05-01T14:12:00Z,30.0600,-84.2910,10.0,5.38,156.47,6.37,'1111122,1111122,1111122' 
COMPS,ioos:station:USF.COMPS:SHP:1,2016-05-01T14:18:00Z,30.0600,-84.2910,10.0,6.16,153.15,7.05,'1111122,1111122,1111122' 
COMPS,ioos:station:USF.COMPS:SHP:1,2016-05-01T14:24:00Z,30.0600,-84.2910,10.0,6.05,155.94,7.44,'1111122,1111122,1111122' 
COMPS,ioos:station:USF.COMPS:SHP:1,2016-05-01T14:30:00Z,30.0600,-84.2910,10.0,5.44,158.95,6.95,'1111122,1111122,1111122' 
COMPS,ioos:station:USF.COMPS:SHP:1,2016-05-01T14:36:00Z,30.0600,-84.2910,10.0,5.2,162.31,6.66,'1111122,1111122,1111122' 
COMPS,ioos:station:USF.COMPS:SHP:1,2016-05-01T14:42:00Z,30.0600,-84.2910,10.0,4.96,158.6,6.56,'1111122,1111122,1111122' 
COMPS,ioos:station:USF.COMPS:SHP:1,2016-05-01T14:48:00Z,30.0600,-84.2910,10.0,5.31,161.45,6.85,'1111122,1111122,1111122' 
COMPS,ioos:station:USF.COMPS:SHP:1,2016-05-01T14:54:00Z,30.0600,-84.2910,10.0,5.71,157.0,7.15,'1111122,1111122,1111122' 
COMPS,ioos:station:USF.COMPS:SHP:1,2016-05-01T15:00:00Z,30.0600,-84.2910,10.0,5.21,162.04,7.35,'1111122,1111122,1111122' 
COMPS,ioos:station:USF.COMPS:SHP:1,2016-05-01T15:06:00Z,30.0600,-84.2910,10.0,5.62,165.75,6.76,'1111122,1111122,1111122' 
COMPS,ioos:station:USF.COMPS:SHP:1,2016-05-01T15:12:00Z,30.0600,-84.2910,10.0,5.95,164.25,7.15,'1111122,1111122,1111122' 
COMPS,ioos:station:USF.COMPS:SHP:1,2016-05-01T15:18:00Z,30.0600,-84.2910,10.0,5.58,162.47,7.35,'1111122,1111122,1111122' 
COMPS,ioos:station:USF.COMPS:SHP:1,2016-05-01T15:24:00Z,30.0600,-84.2910,10.0,5.82,156.61,7.44,'1111122,1111122,1111122' 
COMPS,ioos:station:USF.COMPS:SHP:1,2016-05-01T15:30:00Z,30.0600,-84.2910,10.0,5.57,161.38,7.35,'1111122,1111122,1111122' 
COMPS,ioos:station:USF.COMPS:SHP:1,2016-05-01T15:36:00Z,30.0600,-84.2910,10.0,5.2,160.62,6.37,'1111122,1111122,1111122' 
COMPS,ioos:station:USF.COMPS:SHP:1,2016-05-01T15:42:00Z,30.0600,-84.2910,10.0,5.49,158.42,7.44,'1111122,1111122,1111122' 
COMPS,ioos:station:USF.COMPS:SHP:1,2016-05-01T15:48:00Z,30.0600,-84.2910,10.0,4.92,159.71,6.66,'1111122,1111122,1111122' 
COMPS,ioos:station:USF.COMPS:SHP:1,2016-05-01T15:54:00Z,30.0600,-84.2910,10.0,5.3,159.92,6.37,'1111122,1111122,1111122' 
COMPS,ioos:station:USF.COMPS:SHP:1,2016-05-01T16:00:00Z,30.0600,-84.2910,10.0,6.33,156.96,7.74,'1111122,1111122,1111122' 
COMPS,ioos:station:USF.COMPS:SHP:1,2016-05-01T16:06:00Z,30.0600,-84.2910,10.0,6.41,157.53,7.44,'1111122,1111122,1111122' 
COMPS,ioos:station:USF.COMPS:SHP:1,2016-05-01T16:12:00Z,30.0600,-84.2910,10.0,6.06,157.39,7.54,'1111122,1111122,1111122' 
COMPS,ioos:station:USF.COMPS:SHP:1,2016-05-01T16:18:00Z,30.0600,-84.2910,10.0,5.95,157.25,7.35,'1111122,1111122,1111122' 
COMPS,ioos:station:USF.COMPS:SHP:1,2016-05-01T16:24:00Z,30.0600,-84.2910,10.0,5.44,160.93,7.15,'1111122,1111122,1111122' 
COMPS,ioos:station:USF.COMPS:SHP:1,2016-05-01T16:30:00Z,30.0600,-84.2910,10.0,5.77,159.66,7.25,'1111122,1111122,1111122' 
COMPS,ioos:station:USF.COMPS:SHP:1,2016-05-01T16:36:00Z,30.0600,-84.2910,10.0,5.9,165.54,7.44,'1111122,1111122,1111122' 
COMPS,ioos:station:USF.COMPS:SHP:1,2016-05-01T16:42:00Z,30.0600,-84.2910,10.0,4.79,162.9,6.56,'1111122,1111122,1111122' 
COMPS,ioos:station:USF.COMPS:SHP:1,2016-05-01T16:48:00Z,30.0600,-84.2910,10.0,4.81,162.21,6.66,'1111122,1111122,1111122' 
COMPS,ioos:station:USF.COMPS:SHP:1,2016-05-01T16:54:00Z,30.0600,-84.2910,10.0,5.4,163.17,6.95,'1111122,1111122,1111122' 
COMPS,ioos:station:USF.COMPS:SHP:1,2016-05-01T17:00:00Z,30.0600,-84.2910,10.0,4.87,162.72,6.46,'1111122,1111122,1111122' 
COMPS,ioos:station:USF.COMPS:SHP:1,2016-05-01T17:06:00Z,30.0600,-84.2910,10.0,5.12,159.21,6.95,'1111122,1111122,1111122' 
COMPS,ioos:station:USF.COMPS:SHP:1,2016-05-01T17:12:00Z,30.0600,-84.2910,10.0,4.41,166.25,6.56,'1111122,1111122,1111122' 
COMPS,ioos:station:USF.COMPS:SHP:1,2016-05-01T17:18:00Z,30.0600,-84.2910,10.0,5.65,158.79,6.85,'1111122,1111122,1111122' 
COMPS,ioos:station:USF.COMPS:SHP:1,2016-05-01T17:24:00Z,30.0600,-84.2910,10.0,4.82,167.7,6.56,'1111122,1111122,1111122' 
COMPS,ioos:station:USF.COMPS:SHP:1,2016-05-01T17:30:00Z,30.0600,-84.2910,10.0,5.0,160.26,5.97,'1111122,1111122,1111122' 
COMPS,ioos:station:USF.COMPS:SHP:1,2016-05-01T17:36:00Z,30.0600,-84.2910,10.0,5.26,161.45,6.95,'1111122,1111122,1111122' 
COMPS,ioos:station:USF.COMPS:SHP:1,2016-05-01T17:42:00Z,30.0600,-84.2910,10.0,4.72,159.64,6.46,'1111122,1111122,1111122' 
COMPS,ioos:station:USF.COMPS:SHP:1,2016-05-01T17:48:00Z,30.0600,-84.2910,10.0,4.29,167.08,5.78,'1111122,1111122,1111122' 
COMPS,ioos:station:USF.COMPS:SHP:1,2016-05-01T17:54:00Z,30.0600,-84.2910,10.0,4.38,163.92,6.27,'1111122,1111122,1111122' 
COMPS,ioos:station:USF.COMPS:SHP:1,2016-05-01T18:00:00Z,30.0600,-84.2910,10.0,4.05,162.2,5.97,'1111122,1111122,1111122' 
COMPS,ioos:station:USF.COMPS:SHP:1,2016-05-01T18:06:00Z,30.0600,-84.2910,10.0,3.98,159.81,5.68,'1111122,1111122,1111122' 
COMPS,ioos:station:USF.COMPS:SHP:1,2016-05-01T18:12:00Z,30.0600,-84.2910,10.0,4.1,165.35,5.97,'1111122,1111122,1111122' 
COMPS,ioos:station:USF.COMPS:SHP:1,2016-05-01T18:18:00Z,30.0600,-84.2910,10.0,4.22,164.21,6.37,'1111122,1111122,1111122' 
COMPS,ioos:station:USF.COMPS:SHP:1,2016-05-01T18:24:00Z,30.0600,-84.2910,10.0,3.92,164.66,5.29,'1111122,1111122,1111122' 
COMPS,ioos:station:USF.COMPS:SHP:1,2016-05-01T18:30:00Z,30.0600,-84.2910,10.0,4.0,166.79,5.48,'1111122,1111122,1111122' 
COMPS,ioos:station:USF.COMPS:SHP:1,2016-05-01T18:36:00Z,30.0600,-84.2910,10.0,3.81,163.33,5.19,'1111122,1111122,1111122' 
COMPS,ioos:station:USF.COMPS:SHP:1,2016-05-01T18:42:00Z,30.0600,-84.2910,10.0,3.72,158.13,4.8,'1111122,1111122,1111122' 
COMPS,ioos:station:USF.COMPS:SHP:1,2016-05-01T18:48:00Z,30.0600,-84.2910,10.0,3.47,164.16,4.9,'1111122,1111122,1111122' 
COMPS,ioos:station:USF.COMPS:SHP:1,2016-05-01T18:54:00Z,30.0600,-84.2910,10.0,3.01,170.01,4.7,'1111122,1111122,1111122' 
COMPS,ioos:station:USF.COMPS:SHP:1,2016-05-01T19:00:00Z,30.0600,-84.2910,10.0,2.64,167.19,4.7,'1111122,1111122,1111122' 
COMPS,ioos:station:USF.COMPS:SHP:1,2016-05-01T19:06:00Z,30.0600,-84.2910,10.0,3.47,156.81,4.21,'1111122,1111122,1111122' 
COMPS,ioos:station:USF.COMPS:SHP:1,2016-05-01T19:12:00Z,30.0600,-84.2910,10.0,2.69,167.18,4.41,'1111122,1111122,1111122' 
COMPS,ioos:station:USF.COMPS:SHP:1,2016-05-01T19:18:00Z,30.0600,-84.2910,10.0,2.79,162.29,4.31,'1111122,1111122,1111122' 
COMPS,ioos:station:USF.COMPS:SHP:1,2016-05-01T19:24:00Z,30.0600,-84.2910,10.0,3.19,157.87,5.09,'1111122,1111122,1111122' 
COMPS,ioos:station:USF.COMPS:SHP:1,2016-05-01T19:30:00Z,30.0600,-84.2910,10.0,1.74,166.07,3.43,'1111122,1111122,1111122' 